{"data":{"norad_id":43581,"intl_designator":"2018-062A","name":"BEIDOU-3 M5 (C23)","alt_names":[],"object_type":"PAYLOAD","status":"ACTIVE","operator":null,"country":"PRC","launch_date":"2018-07-29","launch_site_code":"XICLF","launch_vehicle":null,"mission":null,"orbit_class":"UNKNOWN","rcs_meters":null,"size_class":null,"mass_kg":null,"dimensions":null,"purposes":["nav"],"wikipedia_slug":null,"has_3d_model":false,"image_url":null,"decayed_at":null,"tle_current":{"epoch":"2026-05-25T00:25:59.835360Z","epoch_age_seconds":77458,"freshness":"FRESH","line1":"1 43581U 18062A   26145.01805365  .00000061  00000+0  00000+0 0  9999","line2":"2 43581  54.0837 183.0913 0005266 288.8293  71.1823  1.86228616 53206","mean_motion":1.86228616,"eccentricity":0.0005266,"inclination_deg":54.0837,"raan_deg":183.0913,"arg_perigee_deg":288.8293,"mean_anomaly_deg":71.1823,"bstar":0,"rev_number":5320,"period_min":773.24314110781,"perigee_km":21513.594199217,"apogee_km":21542.985247842,"semimajor_km":27906.42672353,"source":"CELESTRAK","updated_at":"2026-05-25T13:38:24.218716Z"}}}